Time,TemperatureF,DewpointF,PressureIn,WindDirection,WindDirectionDegrees,WindSpeedMPH,WindSpeedGustMPH,Humidity,HourlyPrecipIn,Conditions,Clouds,dailyrainin,SoftwareType,DateUTC
2013-06-14 00:08:00,58.4,29.0,29.98,NNE,19,7.0,10.0,33,0.00,,,0.00,weatherlink.com 1.10,2013-06-14 07:08:00,
2013-06-14 00:23:00,58.0,28.0,29.97,North,355,10.0,14.0,32,0.00,,,0.00,weatherlink.com 1.10,2013-06-14 07:23:00,
2013-06-14 00:38:00,57.3,27.0,29.98,NE,35,3.0,13.0,32,0.00,,,0.00,weatherlink.com 1.10,2013-06-14 07:38:00,
2013-06-14 00:53:00,56.7,26.0,29.97,North,355,6.0,13.0,31,0.00,,,0.00,weatherlink.com 1.10,2013-06-14 07:53:00,
2013-06-14 01:08:00,56.2,26.0,29.98,NNE,23,4.0,7.0,31,0.00,,,0.00,weatherlink.com 1.10,2013-06-14 08:08:00,
2013-06-14 01:23:00,55.7,25.0,29.99,East,86,2.0,8.0,31,0.00,,,0.00,weatherlink.com 1.10,2013-06-14 08:23:00,
2013-06-14 01:38:00,54.5,23.0,29.98,NE,37,0.0,5.0,30,0.00,,,0.00,weatherlink.com 1.10,2013-06-14 08:38:00,
2013-06-14 01:54:00,53.9,23.0,29.98,NE,40,5.0,5.0,30,0.00,,,0.00,weatherlink.com 1.10,2013-06-14 08:54:00,
2013-06-14 02:09:00,52.2,21.0,29.98,North,360,6.0,6.0,30,0.00,,,0.00,weatherlink.com 1.10,2013-06-14 09:09:00,
2013-06-14 02:24:00,54.2,22.0,29.99,NNW,340,6.0,7.0,28,0.00,,,0.00,weatherlink.com 1.10,2013-06-14 09:24:00,
2013-06-14 02:39:00,55.0,21.0,29.99,NNW,341,7.0,10.0,27,0.00,,,0.00,weatherlink.com 1.10,2013-06-14 09:39:00,
2013-06-14 02:54:00,54.8,21.0,29.99,NNW,348,6.0,12.0,27,0.00,,,0.00,weatherlink.com 1.10,2013-06-14 09:54:00,
2013-06-14 03:09:00,54.2,21.0,29.98,NNW,347,7.0,12.0,27,0.00,,,0.00,weatherlink.com 1.10,2013-06-14 10:09:00,
2013-06-14 03:24:00,53.3,20.0,29.98,NNW,343,6.0,13.0,27,0.00,,,0.00,weatherlink.com 1.10,2013-06-14 10:24:00,
2013-06-14 03:39:00,52.9,20.0,29.99,NNW,348,6.0,10.0,28,0.00,,,0.00,weatherlink.com 1.10,2013-06-14 10:39:00,
2013-06-14 03:54:00,52.0,20.0,29.99,NNW,346,6.0,11.0,29,0.00,,,0.00,weatherlink.com 1.10,2013-06-14 10:54:00,
2013-06-14 04:09:00,51.6,22.0,30.00,ENE,69,2.0,10.0,32,0.00,,,0.00,weatherlink.com 1.10,2013-06-14 11:09:00,
2013-06-14 04:24:00,50.7,22.0,30.00,SSE,163,4.0,4.0,32,0.00,,,0.00,weatherlink.com 1.10,2013-06-14 11:24:00,
2013-06-14 04:39:00,49.6,22.0,30.01,SSE,163,0.0,2.0,34,0.00,,,0.00,weatherlink.com 1.10,2013-06-14 11:39:00,
2013-06-14 04:54:00,48.2,21.0,30.01,SSE,163,2.0,2.0,34,0.00,,,0.00,weatherlink.com 1.10,2013-06-14 11:54:00,
2013-06-14 05:09:00,46.1,20.0,30.01,SSE,163,0.0,3.0,35,0.00,,,0.00,weatherlink.com 1.10,2013-06-14 12:09:00,
2013-06-14 05:24:00,46.2,22.0,30.02,SSE,163,0.0,3.0,38,0.00,,,0.00,weatherlink.com 1.10,2013-06-14 12:24:00,
2013-06-14 05:39:00,46.1,22.0,30.02,SSE,165,2.0,4.0,39,0.00,,,0.00,weatherlink.com 1.10,2013-06-14 12:39:00,
2013-06-14 05:54:00,46.2,23.0,30.02,SSE,166,0.0,3.0,40,0.00,,,0.00,weatherlink.com 1.10,2013-06-14 12:54:00,
2013-06-14 06:09:00,48.0,26.0,30.02,SSW,203,1.0,5.0,43,0.00,,,0.00,weatherlink.com 1.10,2013-06-14 13:09:00,
2013-06-14 06:54:00,49.8,28.0,30.02,NW,326,3.0,6.0,43,0.00,,,0.00,weatherlink.com 1.10,2013-06-14 13:54:00,
2013-06-14 07:09:00,51.6,28.0,30.02,NE,40,4.0,6.0,41,0.00,,,0.00,weatherlink.com 1.10,2013-06-14 14:09:00,
2013-06-14 07:24:00,52.9,28.0,30.03,NE,40,2.0,8.0,39,0.00,,,0.00,weatherlink.com 1.10,2013-06-14 14:24:00,
2013-06-14 07:39:00,55.0,28.0,30.02,NE,46,6.0,8.0,36,0.00,,,0.00,weatherlink.com 1.10,2013-06-14 14:39:00,
2013-06-14 07:54:00,56.2,27.0,30.02,NE,44,4.0,8.0,33,0.00,,,0.00,weatherlink.com 1.10,2013-06-14 14:54:00,
2013-06-14 08:09:00,55.9,26.0,30.02,NNE,18,2.0,8.0,32,0.00,,,0.00,weatherlink.com 1.10,2013-06-14 15:09:00,
2013-06-14 08:24:00,56.7,26.0,30.02,NE,40,4.0,6.0,31,0.00,,,0.00,weatherlink.com 1.10,2013-06-14 15:24:00,
2013-06-14 08:39:00,58.7,26.0,30.02,NE,43,4.0,6.0,29,0.00,,,0.00,weatherlink.com 1.10,2013-06-14 15:39:00,
2013-06-14 08:54:00,59.0,26.0,30.02,NE,44,0.0,3.0,28,0.00,,,0.00,weatherlink.com 1.10,2013-06-14 15:54:00,
2013-06-14 09:24:00,59.6,26.0,30.01,NE,47,5.0,6.0,28,0.00,,,0.00,weatherlink.com 1.10,2013-06-14 16:24:00,
2013-06-14 09:39:00,62.4,27.0,30.01,ENE,58,0.0,9.0,26,0.00,,,0.00,weatherlink.com 1.10,2013-06-14 16:39:00,
2013-06-14 09:54:00,64.3,27.0,30.00,ESE,121,0.0,6.0,24,0.00,,,0.00,weatherlink.com 1.10,2013-06-14 16:54:00,
2013-06-14 10:10:00,64.3,28.0,29.99,NNE,18,1.0,7.0,25,0.00,,,0.00,weatherlink.com 1.10,2013-06-14 17:10:00,
2013-06-14 10:25:00,66.9,27.0,29.99,ENE,57,4.0,8.0,22,0.00,,,0.00,weatherlink.com 1.10,2013-06-14 17:25:00,
2013-06-14 10:40:00,66.9,24.0,29.99,East,92,6.0,11.0,20,0.00,,,0.00,weatherlink.com 1.10,2013-06-14 17:40:00,
2013-06-14 10:55:00,66.9,26.0,29.98,SE,137,3.0,9.0,21,0.00,,,0.00,weatherlink.com 1.10,2013-06-14 17:55:00,
2013-06-14 11:10:00,68.9,26.0,29.98,South,171,1.0,10.0,20,0.00,,,0.00,weatherlink.com 1.10,2013-06-14 18:10:00,
2013-06-14 11:25:00,70.3,25.0,29.97,ESE,119,2.0,14.0,18,0.00,,,0.00,weatherlink.com 1.10,2013-06-14 18:25:00,
2013-06-14 11:40:00,69.8,26.0,29.97,SE,136,4.0,13.0,19,0.00,,,0.00,weatherlink.com 1.10,2013-06-14 18:40:00,
2013-06-14 11:55:00,70.1,27.0,29.96,SE,137,6.0,14.0,20,0.00,,,0.00,weatherlink.com 1.10,2013-06-14 18:55:00,
2013-06-14 12:10:00,70.6,25.0,29.95,SSE,159,1.0,8.0,18,0.00,,,0.00,weatherlink.com 1.10,2013-06-14 19:10:00,
2013-06-14 12:25:00,72.8,25.0,29.95,East,101,0.0,10.0,17,0.00,,,0.00,weatherlink.com 1.10,2013-06-14 19:25:00,
2013-06-14 12:40:00,74.0,25.0,29.94,NE,51,2.0,11.0,16,0.00,,,0.00,weatherlink.com 1.10,2013-06-14 19:40:00,
2013-06-14 12:55:00,73.3,24.0,29.93,East,96,2.0,12.0,16,0.00,,,0.00,weatherlink.com 1.10,2013-06-14 19:55:00,
2013-06-14 13:10:00,74.4,25.0,29.92,SE,128,1.0,10.0,16,0.00,,,0.00,weatherlink.com 1.10,2013-06-14 20:10:00,
2013-06-14 13:25:00,74.9,26.0,29.92,ENE,77,2.0,13.0,16,0.00,,,0.00,weatherlink.com 1.10,2013-06-14 20:25:00,
2013-06-14 13:40:00,75.1,24.0,29.91,ESE,122,0.0,23.0,15,0.00,,,0.00,weatherlink.com 1.10,2013-06-14 20:40:00,
2013-06-14 13:55:00,77.4,25.0,29.91,NE,55,3.0,11.0,14,0.00,,,0.00,weatherlink.com 1.10,2013-06-14 20:55:00,
2013-06-14 14:10:00,76.0,25.0,29.90,East,99,2.0,18.0,15,0.00,,,0.00,weatherlink.com 1.10,2013-06-14 21:10:00,
2013-06-14 14:25:00,76.0,25.0,29.89,ESE,109,3.0,14.0,15,0.00,,,0.00,weatherlink.com 1.10,2013-06-14 21:25:00,
2013-06-14 14:40:00,76.3,24.0,29.89,ENE,66,5.0,16.0,14,0.00,,,0.00,weatherlink.com 1.10,2013-06-14 21:40:00,
2013-06-14 14:55:00,78.1,23.0,29.88,East,96,6.0,15.0,13,0.00,,,0.00,weatherlink.com 1.10,2013-06-14 21:55:00,
2013-06-14 15:10:00,78.1,23.0,29.87,NNE,17,6.0,9.0,13,0.00,,,0.00,weatherlink.com 1.10,2013-06-14 22:10:00,
2013-06-14 15:25:00,78.5,24.0,29.86,South,188,2.0,8.0,13,0.00,,,0.00,weatherlink.com 1.10,2013-06-14 22:25:00,
2013-06-14 15:40:00,79.2,22.0,29.85,SE,136,1.0,11.0,12,0.00,,,0.00,weatherlink.com 1.10,2013-06-14 22:40:00,
2013-06-14 15:55:00,77.6,23.0,29.85,ENE,62,1.0,10.0,13,0.00,,,0.00,weatherlink.com 1.10,2013-06-14 22:55:00,
2013-06-14 16:10:00,76.1,23.0,29.84,East,84,6.0,10.0,14,0.00,,,0.00,weatherlink.com 1.10,2013-06-14 23:10:00,
2013-06-14 16:25:00,77.0,22.0,29.84,SE,136,3.0,6.0,13,0.00,,,0.00,weatherlink.com 1.10,2013-06-14 23:25:00,
2013-06-14 16:40:00,76.3,22.0,29.84,ESE,110,8.0,12.0,13,0.00,,,0.00,weatherlink.com 1.10,2013-06-14 23:40:00,
2013-06-14 16:55:00,77.7,21.0,29.83,NNE,18,3.0,7.0,12,0.00,,,0.00,weatherlink.com 1.10,2013-06-14 23:55:00,
2013-06-14 17:11:00,79.0,20.0,29.82,ESE,121,0.0,10.0,11,0.00,,,0.00,weatherlink.com 1.10,2013-06-15 00:11:00,
2013-06-14 17:26:00,79.2,20.0,29.81,ESE,121,5.0,10.0,11,0.00,,,0.00,weatherlink.com 1.10,2013-06-15 00:26:00,
2013-06-14 17:41:00,78.8,20.0,29.80,ESE,109,3.0,7.0,11,0.00,,,0.00,weatherlink.com 1.10,2013-06-15 00:41:00,
2013-06-14 17:56:00,79.4,20.0,29.80,East,89,1.0,8.0,11,0.00,,,0.00,weatherlink.com 1.10,2013-06-15 00:56:00,
2013-06-14 18:11:00,78.8,20.0,29.80,ENE,74,3.0,12.0,11,0.00,,,0.00,weatherlink.com 1.10,2013-06-15 01:11:00,
2013-06-14 18:26:00,78.1,21.0,29.80,SE,136,5.0,7.0,12,0.00,,,0.00,weatherlink.com 1.10,2013-06-15 01:26:00,
2013-06-14 18:41:00,76.8,20.0,29.80,SSE,148,6.0,12.0,12,0.00,,,0.00,weatherlink.com 1.10,2013-06-15 01:41:00,
2013-06-14 18:56:00,76.7,20.0,29.79,East,101,6.0,10.0,12,0.00,,,0.00,weatherlink.com 1.10,2013-06-15 01:56:00,
2013-06-14 19:11:00,75.6,19.0,29.80,ESE,118,2.0,12.0,12,0.00,,,0.00,weatherlink.com 1.10,2013-06-15 02:11:00,
2013-06-14 19:26:00,74.2,22.0,29.79,ENE,59,4.0,9.0,14,0.00,,,0.00,weatherlink.com 1.10,2013-06-15 02:26:00,
2013-06-14 19:41:00,73.3,21.0,29.80,NE,42,2.0,9.0,14,0.00,,,0.00,weatherlink.com 1.10,2013-06-15 02:41:00,
2013-06-14 19:56:00,72.1,22.0,29.80,NE,44,1.0,6.0,15,0.00,,,0.00,weatherlink.com 1.10,2013-06-15 02:56:00,
2013-06-14 20:11:00,70.9,22.0,29.80,NE,36,5.0,8.0,16,0.00,,,0.00,weatherlink.com 1.10,2013-06-15 03:11:00,
2013-06-14 20:26:00,69.9,24.0,29.80,NE,43,5.0,5.0,18,0.00,,,0.00,weatherlink.com 1.10,2013-06-15 03:26:00,
2013-06-14 20:41:00,68.4,24.0,29.80,NNE,32,2.0,5.0,19,0.00,,,0.00,weatherlink.com 1.10,2013-06-15 03:41:00,
2013-06-14 20:56:00,67.8,24.0,29.80,NNE,20,3.0,7.0,19,0.00,,,0.00,weatherlink.com 1.10,2013-06-15 03:56:00,
2013-06-14 21:11:00,67.6,22.0,29.81,North,10,5.0,7.0,18,0.00,,,0.00,weatherlink.com 1.10,2013-06-15 04:11:00,
2013-06-14 21:26:00,67.4,22.0,29.81,North,5,5.0,7.0,18,0.00,,,0.00,weatherlink.com 1.10,2013-06-15 04:26:00,
2013-06-14 21:41:00,66.8,23.0,29.82,North,5,4.0,7.0,19,0.00,,,0.00,weatherlink.com 1.10,2013-06-15 04:41:00,
2013-06-14 21:56:00,66.3,21.0,29.82,North,360,3.0,7.0,18,0.00,,,0.00,weatherlink.com 1.10,2013-06-15 04:56:00,
2013-06-14 22:11:00,66.1,21.0,29.82,North,360,3.0,7.0,18,0.00,,,0.00,weatherlink.com 1.10,2013-06-15 05:11:00,
2013-06-14 22:26:00,66.4,20.0,29.82,NNW,348,4.0,8.0,17,0.00,,,0.00,weatherlink.com 1.10,2013-06-15 05:26:00,
2013-06-14 22:41:00,66.3,20.0,29.83,NNW,346,6.0,7.0,17,0.00,,,0.00,weatherlink.com 1.10,2013-06-15 05:41:00,
2013-06-14 22:56:00,65.8,20.0,29.82,NNW,343,3.0,8.0,17,0.00,,,0.00,weatherlink.com 1.10,2013-06-15 05:56:00,
2013-06-14 23:11:00,64.7,20.0,29.82,NNW,339,4.0,7.0,18,0.00,,,0.00,weatherlink.com 1.10,2013-06-15 06:11:00,
2013-06-14 23:26:00,64.7,20.0,29.82,NNW,340,4.0,8.0,18,0.00,,,0.00,weatherlink.com 1.10,2013-06-15 06:26:00,
2013-06-14 23:41:00,64.7,19.0,29.81,NNW,342,8.0,10.0,17,0.00,,,0.00,weatherlink.com 1.10,2013-06-15 06:41:00,
2013-06-14 23:56:00,64.5,20.0,29.81,NNW,348,7.0,10.0,18,0.00,,,0.00,weatherlink.com 1.10,2013-06-15 06:56:00,